Location: Newark
(52.4787°S, 179.0532°W)
Time: 13:59:06
(UTC+00:00)

Transit 2A Rocket - Pass Details

Date: 20 November 2019
Orbit: 594 x 909 km, 66.7° (Epoch: 11 December)

Event Time Altitude Azimuth Distance (km) Brightness Sun altitude
Rises 01:09:07 0° 253° (WSW) 3,488 8.6 53.0°
Reaches altitude 10° 01:12:12 10° 238° (WSW) 2,586 7.9 52.7°
Maximum altitude 01:16:49 22° 188° (S) 1,898 7.0 52.3°
Drops below altitude 10° 01:21:31 10° 138° (SE) 2,627 7.5 51.8°
Sets 01:24:41 0° 123° (ESE) 3,559 8.1 51.5°
